Year,Month,Day,Hour,Minute,Value (Times are PST for temperature in C)
2013,07,15,00,00,14.10
2013,07,15,00,01,14.10
2013,07,15,00,02,14.10
2013,07,15,00,03,14.10
2013,07,15,00,04,14.10
2013,07,15,00,05,14.10
2013,07,15,00,06,14.10
2013,07,15,00,07,14.10
2013,07,15,00,08,14.10
2013,07,15,00,09,14.10
2013,07,15,00,10,14.10
2013,07,15,00,11,14.10
2013,07,15,00,12,14.10
2013,07,15,00,13,14.10
2013,07,15,00,14,14.10
2013,07,15,00,15,14.00
2013,07,15,00,16,14.10
2013,07,15,00,17,14.00
2013,07,15,00,18,14.00
2013,07,15,00,19,14.00
2013,07,15,00,20,14.00
2013,07,15,00,21,14.00
2013,07,15,00,22,14.00
2013,07,15,00,23,14.00
2013,07,15,00,24,14.00
2013,07,15,00,25,14.00
2013,07,15,00,26,14.00
2013,07,15,00,27,14.00
2013,07,15,00,28,14.00
2013,07,15,00,29,14.00
2013,07,15,00,30,14.00
2013,07,15,00,31,13.90
2013,07,15,00,32,13.90
2013,07,15,00,33,13.90
2013,07,15,00,34,13.90
2013,07,15,00,35,13.90
2013,07,15,00,36,13.90
2013,07,15,00,37,13.90
2013,07,15,00,38,13.90
2013,07,15,00,39,13.90
2013,07,15,00,40,14.00
2013,07,15,00,41,14.00
2013,07,15,00,42,13.90
2013,07,15,00,43,13.90
2013,07,15,00,44,13.90
2013,07,15,00,45,13.90
2013,07,15,00,46,13.90
2013,07,15,00,47,13.90
2013,07,15,00,48,13.90
2013,07,15,00,49,13.90
2013,07,15,00,50,13.90
2013,07,15,00,51,13.90
2013,07,15,00,52,13.90
2013,07,15,00,53,13.90
2013,07,15,00,54,13.90
2013,07,15,00,55,13.90
2013,07,15,00,56,13.90
2013,07,15,00,57,13.90
2013,07,15,00,58,13.90
2013,07,15,00,59,13.90
2013,07,15,01,00,14.00
2013,07,15,01,01,14.00
2013,07,15,01,02,14.00
2013,07,15,01,03,14.10
2013,07,15,01,04,14.10
2013,07,15,01,05,14.10
2013,07,15,01,06,14.10
2013,07,15,01,07,14.10
2013,07,15,01,08,14.10
2013,07,15,01,09,14.10
2013,07,15,01,10,14.10
2013,07,15,01,11,14.10
2013,07,15,01,12,14.10
2013,07,15,01,13,14.10
2013,07,15,01,14,14.10
2013,07,15,01,15,14.10
2013,07,15,01,16,14.10
2013,07,15,01,17,14.10
2013,07,15,01,18,14.10
2013,07,15,01,19,14.10
2013,07,15,01,20,14.10
2013,07,15,01,21,14.10
2013,07,15,01,22,14.00
2013,07,15,01,23,14.00
2013,07,15,01,24,14.00
2013,07,15,01,25,14.00
2013,07,15,01,26,14.00
2013,07,15,01,27,13.90
2013,07,15,01,28,13.90
2013,07,15,01,29,13.90
2013,07,15,01,30,13.90
2013,07,15,01,31,13.90
2013,07,15,01,32,13.90
2013,07,15,01,33,13.80
2013,07,15,01,34,13.80
2013,07,15,01,35,13.80
2013,07,15,01,36,13.80
2013,07,15,01,37,13.80
2013,07,15,01,38,13.80
2013,07,15,01,39,13.80
2013,07,15,01,40,13.80
2013,07,15,01,41,13.70
2013,07,15,01,42,13.70
2013,07,15,01,43,13.70
2013,07,15,01,44,13.70
2013,07,15,01,45,13.70
2013,07,15,01,46,13.70
2013,07,15,01,47,13.70
2013,07,15,01,48,13.70
2013,07,15,01,49,13.70
2013,07,15,01,50,13.70
2013,07,15,01,51,13.60
2013,07,15,01,52,13.60
2013,07,15,01,53,13.60
2013,07,15,01,54,13.60
2013,07,15,01,55,13.60
2013,07,15,01,56,13.50
2013,07,15,01,57,13.50
2013,07,15,01,58,13.50
2013,07,15,01,59,13.50
2013,07,15,02,00,13.40
2013,07,15,02,01,13.40
2013,07,15,02,02,13.40
2013,07,15,02,03,13.40
2013,07,15,02,04,13.40
2013,07,15,02,05,13.40
2013,07,15,02,06,13.40
2013,07,15,02,07,13.30
2013,07,15,02,08,13.30
2013,07,15,02,09,13.30
2013,07,15,02,10,13.30
2013,07,15,02,11,13.30
2013,07,15,02,12,13.30
2013,07,15,02,13,13.30
2013,07,15,02,14,13.30
2013,07,15,02,15,13.30
2013,07,15,02,16,13.30
2013,07,15,02,17,13.30
2013,07,15,02,18,13.30
2013,07,15,02,19,13.30
2013,07,15,02,20,13.30
2013,07,15,02,21,13.30
2013,07,15,02,22,13.30
2013,07,15,02,23,13.20
2013,07,15,02,24,13.20
2013,07,15,02,25,13.20
2013,07,15,02,26,13.20
2013,07,15,02,27,13.20
2013,07,15,02,28,13.20
2013,07,15,02,29,13.20
2013,07,15,02,30,13.20
2013,07,15,02,31,13.20
2013,07,15,02,32,13.20
2013,07,15,02,33,13.20
2013,07,15,02,34,13.20
2013,07,15,02,35,13.20
2013,07,15,02,36,13.20
2013,07,15,02,37,13.20
2013,07,15,02,38,13.20
2013,07,15,02,39,13.20
2013,07,15,02,40,13.20
2013,07,15,02,41,13.20
2013,07,15,02,42,13.20
2013,07,15,02,43,13.20
2013,07,15,02,44,13.20
2013,07,15,02,45,13.10
2013,07,15,02,46,13.20
2013,07,15,02,47,13.20
2013,07,15,02,48,13.20
2013,07,15,02,49,13.20
2013,07,15,02,50,13.20
2013,07,15,02,51,13.20
2013,07,15,02,52,13.20
2013,07,15,02,53,13.10
2013,07,15,02,54,13.10
2013,07,15,02,55,13.20
2013,07,15,02,56,13.10
2013,07,15,02,57,13.10
2013,07,15,02,58,13.10
2013,07,15,02,59,13.10
2013,07,15,03,00,13.10
2013,07,15,03,01,13.10
2013,07,15,03,02,13.10
2013,07,15,03,03,13.10
2013,07,15,03,04,13.10
2013,07,15,03,05,13.10
2013,07,15,03,06,13.10
2013,07,15,03,07,13.10
2013,07,15,03,08,13.10
2013,07,15,03,09,13.00
2013,07,15,03,10,13.00
2013,07,15,03,11,13.00
2013,07,15,03,12,13.00
2013,07,15,03,13,13.00
2013,07,15,03,14,13.00
2013,07,15,03,15,13.00
2013,07,15,03,16,13.00
2013,07,15,03,17,13.00
2013,07,15,03,18,13.00
2013,07,15,03,19,13.00
2013,07,15,03,20,12.90
2013,07,15,03,21,12.90
2013,07,15,03,22,12.90
2013,07,15,03,23,12.90
2013,07,15,03,24,12.90
2013,07,15,03,25,12.90
2013,07,15,03,26,12.90
2013,07,15,03,27,12.90
2013,07,15,03,28,12.80
2013,07,15,03,29,12.80
2013,07,15,03,30,12.80
2013,07,15,03,31,12.80
2013,07,15,03,32,12.80
2013,07,15,03,33,12.80
2013,07,15,03,34,12.80
2013,07,15,03,35,12.80
2013,07,15,03,36,12.80
2013,07,15,03,37,12.80
2013,07,15,03,38,12.80
2013,07,15,03,39,12.80
2013,07,15,03,40,12.80
2013,07,15,03,41,12.80
2013,07,15,03,42,12.80
2013,07,15,03,43,12.80
2013,07,15,03,44,12.80
2013,07,15,03,45,12.70
2013,07,15,03,46,12.70
2013,07,15,03,47,12.70
2013,07,15,03,48,12.70
2013,07,15,03,49,12.70
2013,07,15,03,50,12.70
2013,07,15,03,51,12.70
2013,07,15,03,52,12.70
2013,07,15,03,53,12.70
2013,07,15,03,54,12.70
2013,07,15,03,55,12.70
2013,07,15,03,56,12.60
2013,07,15,03,57,12.60
2013,07,15,03,58,12.60
2013,07,15,03,59,12.60
2013,07,15,04,00,12.60
2013,07,15,04,01,12.60
2013,07,15,04,02,12.60
2013,07,15,04,03,12.60
2013,07,15,04,04,12.60
2013,07,15,04,05,12.60
2013,07,15,04,06,12.60
2013,07,15,04,07,12.60
2013,07,15,04,08,12.60
2013,07,15,04,09,12.60
2013,07,15,04,10,12.60
2013,07,15,04,11,12.60
2013,07,15,04,12,12.60
2013,07,15,04,13,12.60
2013,07,15,04,14,12.60
2013,07,15,04,15,12.60
2013,07,15,04,16,12.60
2013,07,15,04,17,12.60
2013,07,15,04,18,12.50
2013,07,15,04,19,12.50
2013,07,15,04,20,12.50
2013,07,15,04,21,12.50
2013,07,15,04,22,12.50
2013,07,15,04,23,12.50
2013,07,15,04,24,12.50
2013,07,15,04,25,12.60
2013,07,15,04,26,12.60
2013,07,15,04,27,12.50
2013,07,15,04,28,12.60
2013,07,15,04,29,12.60
2013,07,15,04,30,12.50
2013,07,15,04,31,12.50
2013,07,15,04,32,12.50
2013,07,15,04,33,12.50
2013,07,15,04,34,12.50
2013,07,15,04,35,12.50
2013,07,15,04,36,12.50
2013,07,15,04,37,12.50
2013,07,15,04,38,12.40
2013,07,15,04,39,12.40
2013,07,15,04,40,12.40
2013,07,15,04,41,12.40
2013,07,15,04,42,12.40
2013,07,15,04,43,12.30
2013,07,15,04,44,12.30
2013,07,15,04,45,12.30
2013,07,15,04,46,12.30
2013,07,15,04,47,12.30
2013,07,15,04,48,12.30
2013,07,15,04,49,12.20
2013,07,15,04,50,12.20
2013,07,15,04,51,12.20
2013,07,15,04,52,12.20
2013,07,15,04,53,12.20
2013,07,15,04,54,12.20
2013,07,15,04,55,12.20
2013,07,15,04,56,12.20
2013,07,15,04,57,12.20
2013,07,15,04,58,12.20
2013,07,15,04,59,12.10
2013,07,15,05,00,12.10
2013,07,15,05,01,12.10
2013,07,15,05,02,12.10
2013,07,15,05,03,12.10
2013,07,15,05,04,12.10
2013,07,15,05,05,12.10
2013,07,15,05,06,12.10
2013,07,15,05,07,12.10
2013,07,15,05,08,12.10
2013,07,15,05,09,12.10
2013,07,15,05,10,12.10
2013,07,15,05,11,12.20
2013,07,15,05,12,12.20
2013,07,15,05,13,12.20
2013,07,15,05,14,12.20
2013,07,15,05,15,12.10
2013,07,15,05,16,12.10
2013,07,15,05,17,12.10
2013,07,15,05,18,12.10
2013,07,15,05,19,12.10
2013,07,15,05,20,12.10
2013,07,15,05,21,12.10
2013,07,15,05,22,12.10
2013,07,15,05,23,12.10
2013,07,15,05,24,12.10
2013,07,15,05,25,12.10
2013,07,15,05,26,12.10
2013,07,15,05,27,12.00
2013,07,15,05,28,12.00
2013,07,15,05,29,12.00
2013,07,15,05,30,11.90
2013,07,15,05,31,11.90
2013,07,15,05,32,11.90
2013,07,15,05,33,11.90
2013,07,15,05,34,11.90
2013,07,15,05,35,11.80
2013,07,15,05,36,11.80
2013,07,15,05,37,11.80
2013,07,15,05,38,11.80
2013,07,15,05,39,11.80
2013,07,15,05,40,11.80
2013,07,15,05,41,11.80
2013,07,15,05,42,11.80
2013,07,15,05,43,11.80
2013,07,15,05,44,11.80
2013,07,15,05,45,11.80
2013,07,15,05,46,11.80
2013,07,15,05,47,11.80
2013,07,15,05,48,11.80
2013,07,15,05,49,11.80
2013,07,15,05,50,11.80
2013,07,15,05,51,11.80
2013,07,15,05,52,11.80
2013,07,15,05,53,11.90
2013,07,15,05,54,11.90
2013,07,15,05,55,11.90
2013,07,15,05,56,11.90
2013,07,15,05,57,11.90
2013,07,15,05,58,12.00
2013,07,15,05,59,12.00
2013,07,15,06,00,12.00
2013,07,15,06,01,12.10
2013,07,15,06,02,12.10
2013,07,15,06,03,12.10
2013,07,15,06,04,12.10
2013,07,15,06,05,12.10
2013,07,15,06,06,12.20
2013,07,15,06,07,12.20
2013,07,15,06,08,12.20
2013,07,15,06,09,12.20
2013,07,15,06,10,12.20
2013,07,15,06,11,12.30
2013,07,15,06,12,12.30
2013,07,15,06,13,12.30
2013,07,15,06,14,12.40
2013,07,15,06,15,12.40
2013,07,15,06,16,12.50
2013,07,15,06,17,12.50
2013,07,15,06,18,12.60
2013,07,15,06,19,12.60
2013,07,15,06,20,12.70
2013,07,15,06,21,12.70
2013,07,15,06,22,12.80
2013,07,15,06,23,12.80
2013,07,15,06,24,12.80
2013,07,15,06,25,12.90
2013,07,15,06,26,12.90
2013,07,15,06,27,13.00
2013,07,15,06,28,13.00
2013,07,15,06,29,13.10
2013,07,15,06,30,13.10
2013,07,15,06,31,13.20
2013,07,15,06,32,13.20
2013,07,15,06,33,13.30
2013,07,15,06,34,13.30
2013,07,15,06,35,13.40
2013,07,15,06,36,13.40
2013,07,15,06,37,13.40
2013,07,15,06,38,13.40
2013,07,15,06,39,13.50
2013,07,15,06,40,13.50
2013,07,15,06,41,13.60
2013,07,15,06,42,13.60
2013,07,15,06,43,13.70
2013,07,15,06,44,13.70
2013,07,15,06,45,13.70
2013,07,15,06,46,13.70
2013,07,15,06,47,13.70
2013,07,15,06,48,13.70
2013,07,15,06,49,13.80
2013,07,15,06,50,13.80
2013,07,15,06,51,13.80
2013,07,15,06,52,13.80
2013,07,15,06,53,13.90
2013,07,15,06,54,14.00
2013,07,15,06,55,14.10
2013,07,15,06,56,14.20
2013,07,15,06,57,14.20
2013,07,15,06,58,14.30
2013,07,15,06,59,14.30
2013,07,15,07,00,14.40
2013,07,15,07,01,14.40
2013,07,15,07,02,14.40
2013,07,15,07,03,14.50
2013,07,15,07,04,14.50
2013,07,15,07,05,14.50
2013,07,15,07,06,14.50
2013,07,15,07,07,14.50
2013,07,15,07,08,14.40
2013,07,15,07,09,14.40
2013,07,15,07,10,14.30
2013,07,15,07,11,14.30
2013,07,15,07,12,14.30
2013,07,15,07,13,14.30
2013,07,15,07,14,14.30
2013,07,15,07,15,14.30
2013,07,15,07,16,14.30
2013,07,15,07,17,14.30
2013,07,15,07,18,14.30
2013,07,15,07,19,14.30
2013,07,15,07,20,14.40
2013,07,15,07,21,14.40
2013,07,15,07,22,14.40
2013,07,15,07,23,14.50
2013,07,15,07,24,14.50
2013,07,15,07,25,14.50
2013,07,15,07,26,14.50
2013,07,15,07,27,14.50
2013,07,15,07,28,14.50
2013,07,15,07,29,14.60
2013,07,15,07,30,14.60
2013,07,15,07,31,14.70
2013,07,15,07,32,14.70
2013,07,15,07,33,14.80
2013,07,15,07,34,14.80
2013,07,15,07,35,14.80
2013,07,15,07,36,14.90
2013,07,15,07,37,14.90
2013,07,15,07,38,15.00
2013,07,15,07,39,15.00
2013,07,15,07,40,15.10
2013,07,15,07,41,15.10
2013,07,15,07,42,15.20
2013,07,15,07,43,15.30
2013,07,15,07,44,15.30
2013,07,15,07,45,15.30
2013,07,15,07,46,15.40
2013,07,15,07,47,15.40
2013,07,15,07,48,15.50
2013,07,15,07,49,15.60
2013,07,15,07,50,15.60
2013,07,15,07,51,15.70
2013,07,15,07,52,15.80
2013,07,15,07,53,15.80
2013,07,15,07,54,15.80
2013,07,15,07,55,15.80
2013,07,15,07,56,15.80
2013,07,15,07,57,15.80
2013,07,15,07,58,15.80
2013,07,15,07,59,15.80
2013,07,15,08,00,15.80
2013,07,15,08,01,15.80
2013,07,15,08,02,15.80
2013,07,15,08,03,15.80
2013,07,15,08,04,15.80
2013,07,15,08,05,15.80
2013,07,15,08,06,15.90
2013,07,15,08,07,15.90
2013,07,15,08,08,15.90
2013,07,15,08,09,15.90
2013,07,15,08,10,15.90
2013,07,15,08,11,16.00
2013,07,15,08,12,16.00
2013,07,15,08,13,16.10
2013,07,15,08,14,16.10
2013,07,15,08,15,16.10
2013,07,15,08,16,16.10
2013,07,15,08,17,16.10
2013,07,15,08,18,16.10
2013,07,15,08,19,16.20
2013,07,15,08,20,16.20
2013,07,15,08,21,16.20
2013,07,15,08,22,16.30
2013,07,15,08,23,16.30
2013,07,15,08,24,16.30
2013,07,15,08,25,16.30
2013,07,15,08,26,16.30
2013,07,15,08,27,16.30
2013,07,15,08,28,16.30
2013,07,15,08,29,16.30
2013,07,15,08,30,16.30
2013,07,15,08,31,16.30
2013,07,15,08,32,16.30
2013,07,15,08,33,16.30
2013,07,15,08,34,16.30
2013,07,15,08,35,16.40
2013,07,15,08,36,16.40
2013,07,15,08,37,16.40
2013,07,15,08,38,16.40
2013,07,15,08,39,16.40
2013,07,15,08,40,16.50
2013,07,15,08,41,16.50
2013,07,15,08,42,16.60
2013,07,15,08,43,16.60
2013,07,15,08,44,16.60
2013,07,15,08,45,16.60
2013,07,15,08,46,16.60
2013,07,15,08,47,16.60
2013,07,15,08,48,16.60
2013,07,15,08,49,16.60
2013,07,15,08,50,16.60
2013,07,15,08,51,16.50
2013,07,15,08,52,16.50
2013,07,15,08,53,16.50
2013,07,15,08,54,16.60
2013,07,15,08,55,16.60
2013,07,15,08,56,16.70
2013,07,15,08,57,16.70
2013,07,15,08,58,16.80
2013,07,15,08,59,16.80
2013,07,15,09,00,16.90
2013,07,15,09,01,16.90
2013,07,15,09,02,17.00
2013,07,15,09,03,17.00
2013,07,15,09,04,17.00
2013,07,15,09,05,16.90
2013,07,15,09,06,16.90
2013,07,15,09,07,16.90
2013,07,15,09,08,16.80
2013,07,15,09,09,16.70
2013,07,15,09,10,16.60
2013,07,15,09,11,16.60
2013,07,15,09,12,16.60
2013,07,15,09,13,16.60
2013,07,15,09,14,16.60
2013,07,15,09,15,16.60
2013,07,15,09,16,16.70
2013,07,15,09,17,16.70
2013,07,15,09,18,16.80
2013,07,15,09,19,16.80
2013,07,15,09,20,16.90
2013,07,15,09,21,16.90
2013,07,15,09,22,16.90
2013,07,15,09,23,16.90
2013,07,15,09,24,16.90
2013,07,15,09,25,16.90
2013,07,15,09,26,16.90
2013,07,15,09,27,16.90
2013,07,15,09,28,16.80
2013,07,15,09,29,16.80
2013,07,15,09,30,16.80
2013,07,15,09,31,16.80
2013,07,15,09,32,16.80
2013,07,15,09,33,16.70
2013,07,15,09,34,16.70
2013,07,15,09,35,16.70
2013,07,15,09,36,16.60
2013,07,15,09,37,16.60
2013,07,15,09,38,16.60
2013,07,15,09,39,16.50
2013,07,15,09,40,16.50
2013,07,15,09,41,16.40
2013,07,15,09,42,16.40
2013,07,15,09,43,16.30
2013,07,15,09,44,16.30
2013,07,15,09,45,16.20
2013,07,15,09,46,16.20
2013,07,15,09,47,16.20
2013,07,15,09,48,16.20
2013,07,15,09,49,16.20
2013,07,15,09,50,16.30
2013,07,15,09,51,16.40
2013,07,15,09,52,16.40
2013,07,15,09,53,16.50
2013,07,15,09,54,16.60
2013,07,15,09,55,16.60
2013,07,15,09,56,16.70
2013,07,15,09,57,16.70
2013,07,15,09,58,16.70
2013,07,15,09,59,16.70
2013,07,15,10,00,16.80
2013,07,15,10,01,16.80
2013,07,15,10,02,16.80
2013,07,15,10,03,16.80
2013,07,15,10,04,16.80
2013,07,15,10,05,16.80
2013,07,15,10,06,16.80
2013,07,15,10,07,16.80
2013,07,15,10,08,16.80
2013,07,15,10,09,16.80
2013,07,15,10,10,16.90
2013,07,15,10,11,17.00
2013,07,15,10,12,17.10
2013,07,15,10,13,17.20
2013,07,15,10,14,17.40
2013,07,15,10,15,17.50
2013,07,15,10,16,17.70
2013,07,15,10,17,17.80
2013,07,15,10,18,17.80
2013,07,15,10,19,17.80
2013,07,15,10,20,17.70
2013,07,15,10,21,17.70
2013,07,15,10,22,17.70
2013,07,15,10,23,17.70
2013,07,15,10,24,17.60
2013,07,15,10,25,17.60
2013,07,15,10,26,17.50
2013,07,15,10,27,17.40
2013,07,15,10,28,17.40
2013,07,15,10,29,17.40
2013,07,15,10,30,17.40
2013,07,15,10,31,17.40
2013,07,15,10,32,17.40
2013,07,15,10,33,17.50
2013,07,15,10,34,17.50
2013,07,15,10,35,17.50
2013,07,15,10,36,17.50
2013,07,15,10,37,17.50
2013,07,15,10,38,17.50
2013,07,15,10,39,17.60
2013,07,15,10,40,17.80
2013,07,15,10,41,17.90
2013,07,15,10,42,18.00
2013,07,15,10,43,18.10
2013,07,15,10,44,18.20
2013,07,15,10,45,18.20
2013,07,15,10,46,18.30
2013,07,15,10,47,18.30
2013,07,15,10,48,18.30
2013,07,15,10,49,18.40
2013,07,15,10,50,18.40
2013,07,15,10,51,18.50
2013,07,15,10,52,18.60
2013,07,15,10,53,18.70
2013,07,15,10,54,18.70
2013,07,15,10,55,18.80
2013,07,15,10,56,18.90
2013,07,15,10,57,19.00
2013,07,15,10,58,19.10
2013,07,15,10,59,19.10
2013,07,15,11,00,19.10
2013,07,15,11,01,19.10
2013,07,15,11,02,19.10
2013,07,15,11,03,19.10
2013,07,15,11,04,19.10
2013,07,15,11,05,19.20
2013,07,15,11,06,19.20
2013,07,15,11,07,19.20
2013,07,15,11,08,19.20
2013,07,15,11,09,19.20
2013,07,15,11,10,19.20
2013,07,15,11,11,19.20
2013,07,15,11,12,19.20
2013,07,15,11,13,19.20
2013,07,15,11,14,19.30
2013,07,15,11,15,19.30
2013,07,15,11,16,19.40
2013,07,15,11,17,19.50
2013,07,15,11,18,19.50
2013,07,15,11,19,19.40
2013,07,15,11,20,19.40
2013,07,15,11,21,19.40
2013,07,15,11,22,19.30
2013,07,15,11,23,19.10
2013,07,15,11,24,19.00
2013,07,15,11,25,18.90
2013,07,15,11,26,18.80
2013,07,15,11,27,18.80
2013,07,15,11,28,18.80
2013,07,15,11,29,18.80
2013,07,15,11,30,18.90
2013,07,15,11,31,19.00
2013,07,15,11,32,19.10
2013,07,15,11,33,19.10
2013,07,15,11,34,19.20
2013,07,15,11,35,19.20
2013,07,15,11,36,19.20
2013,07,15,11,37,19.30
2013,07,15,11,38,19.30
2013,07,15,11,39,19.40
2013,07,15,11,40,19.50
2013,07,15,11,41,19.60
2013,07,15,11,42,19.80
2013,07,15,11,43,19.80
2013,07,15,11,44,19.80
2013,07,15,11,45,19.70
2013,07,15,11,46,19.70
2013,07,15,11,47,19.60
2013,07,15,11,48,19.60
2013,07,15,11,49,19.60
2013,07,15,11,50,19.60
2013,07,15,11,51,19.60
2013,07,15,11,52,19.60
2013,07,15,11,53,19.60
2013,07,15,11,54,19.50
2013,07,15,11,55,19.50
2013,07,15,11,56,19.40
2013,07,15,11,57,19.40
2013,07,15,11,58,19.50
2013,07,15,11,59,19.50
2013,07,15,12,00,19.60
2013,07,15,12,01,19.60
2013,07,15,12,02,19.70
2013,07,15,12,03,19.60
2013,07,15,12,04,19.60
2013,07,15,12,05,19.60
2013,07,15,12,06,19.60
2013,07,15,12,07,19.70
2013,07,15,12,08,19.70
2013,07,15,12,09,19.80
2013,07,15,12,10,19.90
2013,07,15,12,11,19.90
2013,07,15,12,12,19.90
2013,07,15,12,13,19.90
2013,07,15,12,14,19.90
2013,07,15,12,15,19.90
2013,07,15,12,16,19.90
2013,07,15,12,17,19.90
2013,07,15,12,18,20.00
2013,07,15,12,19,20.00
2013,07,15,12,20,20.10
2013,07,15,12,21,20.10
2013,07,15,12,22,20.20
2013,07,15,12,23,20.20
2013,07,15,12,24,20.20
2013,07,15,12,25,20.20
2013,07,15,12,26,20.10
2013,07,15,12,27,20.10
2013,07,15,12,28,20.10
2013,07,15,12,29,20.10
2013,07,15,12,30,20.20
2013,07,15,12,31,20.20
2013,07,15,12,32,20.30
2013,07,15,12,33,20.40
2013,07,15,12,34,20.50
2013,07,15,12,35,20.50
2013,07,15,12,36,20.60
2013,07,15,12,37,20.60
2013,07,15,12,38,20.60
2013,07,15,12,39,20.60
2013,07,15,12,40,20.60
2013,07,15,12,41,20.70
2013,07,15,12,42,20.70
2013,07,15,12,43,20.70
2013,07,15,12,44,20.70
2013,07,15,12,45,20.70
2013,07,15,12,46,20.70
2013,07,15,12,47,20.60
2013,07,15,12,48,20.50
2013,07,15,12,49,20.40
2013,07,15,12,50,20.40
2013,07,15,12,51,20.30
2013,07,15,12,52,20.20
2013,07,15,12,53,20.20
2013,07,15,12,54,20.10
2013,07,15,12,55,20.10
2013,07,15,12,56,20.10
2013,07,15,12,57,20.00
2013,07,15,12,58,19.90
2013,07,15,12,59,19.90
2013,07,15,13,00,19.80
2013,07,15,13,01,19.70
2013,07,15,13,02,19.70
2013,07,15,13,03,19.60
2013,07,15,13,04,19.60
2013,07,15,13,05,19.60
2013,07,15,13,06,19.60
2013,07,15,13,07,19.50
2013,07,15,13,08,19.50
2013,07,15,13,09,19.50
2013,07,15,13,10,19.40
2013,07,15,13,11,19.40
2013,07,15,13,12,19.50
2013,07,15,13,13,19.60
2013,07,15,13,14,19.60
2013,07,15,13,15,19.70
2013,07,15,13,16,19.70
2013,07,15,13,17,19.80
2013,07,15,13,18,19.70
2013,07,15,13,19,19.70
2013,07,15,13,20,19.70
2013,07,15,13,21,19.70
2013,07,15,13,22,19.70
2013,07,15,13,23,19.70
2013,07,15,13,24,19.80
2013,07,15,13,25,19.90
2013,07,15,13,26,20.00
2013,07,15,13,27,20.10
2013,07,15,13,28,20.10
2013,07,15,13,29,20.10
2013,07,15,13,30,20.00
2013,07,15,13,31,19.90
2013,07,15,13,32,19.80
2013,07,15,13,33,19.80
2013,07,15,13,34,19.80
2013,07,15,13,35,19.90
2013,07,15,13,36,19.90
2013,07,15,13,37,20.00
2013,07,15,13,38,20.10
2013,07,15,13,39,20.10
2013,07,15,13,40,20.20
2013,07,15,13,41,20.20
2013,07,15,13,42,20.30
2013,07,15,13,43,20.30
2013,07,15,13,44,20.20
2013,07,15,13,45,20.30
2013,07,15,13,46,20.30
2013,07,15,13,47,20.40
2013,07,15,13,48,20.40
2013,07,15,13,49,20.40
2013,07,15,13,50,20.40
2013,07,15,13,51,20.40
2013,07,15,13,52,20.40
2013,07,15,13,53,20.50
2013,07,15,13,54,20.50
2013,07,15,13,55,20.50
2013,07,15,13,56,20.60
2013,07,15,13,57,20.60
2013,07,15,13,58,20.70
2013,07,15,13,59,20.70
2013,07,15,14,00,20.80
2013,07,15,14,01,20.80
2013,07,15,14,02,20.80
2013,07,15,14,03,20.90
2013,07,15,14,04,21.10
2013,07,15,14,05,21.20
2013,07,15,14,06,21.20
2013,07,15,14,07,21.20
2013,07,15,14,08,21.20
2013,07,15,14,09,21.20
2013,07,15,14,10,21.10
2013,07,15,14,11,21.00
2013,07,15,14,12,20.80
2013,07,15,14,13,20.80
2013,07,15,14,14,20.80
2013,07,15,14,15,20.90
2013,07,15,14,16,21.00
2013,07,15,14,17,21.10
2013,07,15,14,18,21.20
2013,07,15,14,19,21.30
2013,07,15,14,20,21.20
2013,07,15,14,21,21.20
2013,07,15,14,22,21.10
2013,07,15,14,23,21.00
2013,07,15,14,24,20.90
2013,07,15,14,25,20.90
2013,07,15,14,26,20.90
2013,07,15,14,27,21.00
2013,07,15,14,28,21.00
2013,07,15,14,29,21.10
2013,07,15,14,30,21.20
2013,07,15,14,31,21.40
2013,07,15,14,32,21.50
2013,07,15,14,33,21.50
2013,07,15,14,34,21.60
2013,07,15,14,35,21.60
2013,07,15,14,36,21.60
2013,07,15,14,37,21.60
2013,07,15,14,38,21.50
2013,07,15,14,39,21.40
2013,07,15,14,40,21.30
2013,07,15,14,41,21.20
2013,07,15,14,42,21.20
2013,07,15,14,43,21.20
2013,07,15,14,44,21.20
2013,07,15,14,45,21.20
2013,07,15,14,46,21.20
2013,07,15,14,47,21.30
2013,07,15,14,48,21.40
2013,07,15,14,49,21.40
2013,07,15,14,50,21.40
2013,07,15,14,51,21.30
2013,07,15,14,52,21.40
2013,07,15,14,53,21.40
2013,07,15,14,54,21.50
2013,07,15,14,55,21.50
2013,07,15,14,56,21.60
2013,07,15,14,57,21.60
2013,07,15,14,58,21.70
2013,07,15,14,59,21.70
2013,07,15,15,00,21.70
2013,07,15,15,01,21.70
2013,07,15,15,02,21.70
2013,07,15,15,03,21.60
2013,07,15,15,04,21.50
2013,07,15,15,05,21.30
2013,07,15,15,06,21.30
2013,07,15,15,07,21.30
2013,07,15,15,08,21.30
2013,07,15,15,09,21.30
2013,07,15,15,10,21.30
2013,07,15,15,11,21.40
2013,07,15,15,12,21.50
2013,07,15,15,13,21.60
2013,07,15,15,14,21.70
2013,07,15,15,15,21.70
2013,07,15,15,16,21.70
2013,07,15,15,17,21.60
2013,07,15,15,18,21.60
2013,07,15,15,19,21.60
2013,07,15,15,20,21.60
2013,07,15,15,21,21.50
2013,07,15,15,22,21.50
2013,07,15,15,23,21.40
2013,07,15,15,24,21.30
2013,07,15,15,25,21.20
2013,07,15,15,26,21.20
2013,07,15,15,27,21.20
2013,07,15,15,28,21.30
2013,07,15,15,29,21.30
2013,07,15,15,30,21.30
2013,07,15,15,31,21.30
2013,07,15,15,32,21.40
2013,07,15,15,33,21.40
2013,07,15,15,34,21.40
2013,07,15,15,35,21.50
2013,07,15,15,36,21.60
2013,07,15,15,37,21.70
2013,07,15,15,38,21.90
2013,07,15,15,39,21.90
2013,07,15,15,40,22.00
2013,07,15,15,41,22.00
2013,07,15,15,42,22.00
2013,07,15,15,43,22.00
2013,07,15,15,44,22.00
2013,07,15,15,45,22.00
2013,07,15,15,46,22.00
2013,07,15,15,47,22.00
2013,07,15,15,48,21.90
2013,07,15,15,49,21.90
2013,07,15,15,50,21.90
2013,07,15,15,51,21.90
2013,07,15,15,52,21.90
2013,07,15,15,53,21.90
2013,07,15,15,54,22.00
2013,07,15,15,55,22.00
2013,07,15,15,56,22.10
2013,07,15,15,57,22.10
2013,07,15,15,58,22.10
2013,07,15,15,59,22.20
2013,07,15,16,00,22.30
2013,07,15,16,01,22.30
2013,07,15,16,02,22.30
2013,07,15,16,03,22.30
2013,07,15,16,04,22.40
2013,07,15,16,05,22.30
2013,07,15,16,06,22.40
2013,07,15,16,07,22.40
2013,07,15,16,08,22.50
2013,07,15,16,09,22.50
2013,07,15,16,10,22.70
2013,07,15,16,11,22.80
2013,07,15,16,12,23.00
2013,07,15,16,13,23.10
2013,07,15,16,14,23.20
2013,07,15,16,15,23.40
2013,07,15,16,16,23.50
2013,07,15,16,17,23.60
2013,07,15,16,18,23.50
2013,07,15,16,19,23.40
2013,07,15,16,20,23.20
2013,07,15,16,21,23.10
2013,07,15,16,22,22.90
2013,07,15,16,23,22.90
2013,07,15,16,24,22.80
2013,07,15,16,25,22.70
2013,07,15,16,26,22.70
2013,07,15,16,27,22.70
2013,07,15,16,28,22.60
2013,07,15,16,29,22.60
2013,07,15,16,30,22.50
2013,07,15,16,31,22.40
2013,07,15,16,32,22.40
2013,07,15,16,33,22.40
2013,07,15,16,34,22.30
2013,07,15,16,35,22.20
2013,07,15,16,36,22.10
2013,07,15,16,37,22.10
2013,07,15,16,38,22.00
2013,07,15,16,39,22.00
2013,07,15,16,40,22.00
2013,07,15,16,41,22.10
2013,07,15,16,42,22.10
2013,07,15,16,43,22.20
2013,07,15,16,44,22.30
2013,07,15,16,45,22.40
2013,07,15,16,46,22.40
2013,07,15,16,47,22.50
2013,07,15,16,48,22.50
2013,07,15,16,49,22.60
2013,07,15,16,50,22.60
2013,07,15,16,51,22.60
2013,07,15,16,52,22.70
2013,07,15,16,53,22.70
2013,07,15,16,54,22.70
2013,07,15,16,55,22.60
2013,07,15,16,56,22.50
2013,07,15,16,57,22.40
2013,07,15,16,58,22.40
2013,07,15,16,59,22.30
2013,07,15,17,00,22.30
2013,07,15,17,01,22.30
2013,07,15,17,02,22.30
2013,07,15,17,03,22.30
2013,07,15,17,04,22.30
2013,07,15,17,05,22.30
2013,07,15,17,06,22.30
2013,07,15,17,07,22.30
2013,07,15,17,08,22.40
2013,07,15,17,09,22.40
2013,07,15,17,10,22.50
2013,07,15,17,11,22.60
2013,07,15,17,12,22.70
2013,07,15,17,13,22.70
2013,07,15,17,14,22.70
2013,07,15,17,15,22.60
2013,07,15,17,16,22.60
2013,07,15,17,17,22.50
2013,07,15,17,18,22.40
2013,07,15,17,19,22.30